星链-6031 (STARLINK-6031 )

导读

STARLINK-6031是美国SpaceX公司星链(Starlink)低轨互联网星座的组成卫星,于2023年5月31日由猎鹰9号运载火箭发射升空。作为星链组网的一员,它运行在近地轨道,配备相控阵天线与推进系统,为全球提供高速低延迟卫星互联网接入,尤其可为偏远、基础设施匮乏区域提供宽带服务,支撑了星链全球覆盖的星座部署进程。

Basic Information
目录编号:
56810
目录名称:
STARLINK-6031
国际标识:
2023-078AV
轨道中心:
EARTH
卫星名称:
星链-6031
卫星全名:
星链-6031 (STARLINK-6031 )
卫星状态:
在轨 (已飞行1200 天)
发射日期:
2023-05-31 UTC
国别 :
美国 (US)
星等 :
--
This satellite is enrolled in the Space Conjunction Data Service (SCDS) and the current flight risk assessment level is: No High Risk
Orbit Information
数据来源 国际轨道数据 AOE轨道数据
星历时间 2026-09-12T10:21:02+0800
13小时前
查看轨道信息
2026-09-10T18:00:00+0800
2天前
查看轨道信息
半长轴 6950.195km 6950.159km
偏心率 0.0003594 0.0003788
轨道倾角 69.998° 69.998°
近地点辐角 262.868° 260.901°
升交点赤经 234.400° 238.637°
平近点角 97.207° 32.956°
近地点 569.56km 569.389km
远地点 574.556km 574.655km
周期 96.107分钟 96.106分钟
每日圈数 14.983295 14.98341
Detailed Information
固有亮度:
5
最大亮度:
2.5
卫星平台:
Starlink v1.5
覆盖范围:
全球
运营商:
太空探索技术公司
运营商所在国:
美国
制造商(研发单位):
太空探索技术公司
制造商所在国:
美国
使用方式:
暂无
Satellite Introduction
星链(Starlink)计划是由太空探索技术公司(SpaceX)提出的一个巨型低轨卫星互联网星座项目,计划在2019年至2024年间在太空搭建由约1.2万颗卫星组成的“星链”网络,其中1584颗将部署在地球上空550千米处的近地轨道,并从2020年开始工作。该卫星仍在工作。
2D Orbit Map
3D Orbit Map
Orbit Altitude Analysis Chart
Orbit Inclination Analysis Chart
Orbit Comprehensive Analysis Chart
View Comprehensive Chart
Miss Distance Evolution Trend with All Objects
Collision Probability Evolution Trend with All Objects